Find Aoi

NORAD ID: 43679 Int'l Des: 2018-084 Owner: SHIZ Country: J operational
LEOCIRCULARRETROGRADE

Current View

Loading 3D Globe...

About Aoi

Description loading...

Upcoming Passes

Passes for default location (London). Set your location on the main map for personalized predictions.

Altitude History

Loading altitude history...

Two-Line Element Set

1 43679U 18084J 26149.53786841 .00008167 00000-0 41913-3 0 9997
2 43679 98.0519 2.3617 0001442 186.2741 173.8472 15.16816315414640
Epoch: May 29, 2026 • Age: 15 hours

Current Status

Altitude 519.7 km
Velocity 7.60 km/s
Sub-Earth Point -11.60°S, 126.31°W
Launch Date Oct 29, 2018
Age 7.5 years
Type other

Technical Details

Classification Payload
Mass 1.40 kg
Dry Mass 1.40 kg
Total Mass 1.40 kg
Length 0.10 m
Diameter 0.10 m
Span 0.10 m
Shape Box
Manufacturer SHIZ
Bus Type Cubesat 1U
Phase Status In Orbit
Owner/State SHIZ/J

Most Searched